sat.trackr.live / text

‹ back to catalog

IRIDIUM 119

NORAD 42959 · 2017-061E

PAYLOAD ACTIVE UNKNOWN

§ Identity

Operator
Country
US
Launch date
2017-10-09
Launch site
AFWTR
Launch vehicle
Mass (kg)
RCS (m²)

Purposes: comms

External: N2YO · Heavens-Above · Gunter

§ Orbital elements

Epoch: 2026-09-19T22:36:38.743776Z

Period
100.40 min
Inclination
86.4023°
Eccentricity
0.0002264
Mean motion
14.34217843 rev/d
Perigee alt
776.0 km
Apogee alt
779.3 km
Semi-major
7,155.8 km
B*
1.2141e-5
RAAN
345.6580°
Arg perigee
94.0464°
Mean anomaly
266.0990°
Rev number
46,839

§ Raw data

IRIDIUM 1191 42959U 17061E   26262.94211509  .00000054  00000+0  12141-4 0  99942 42959  86.4023 345.6580 0002264  94.0464 266.0990 14.34217843468395

JSON: /api/v1/satellites/42959 · /tle

For live sub-satellite position, see the globe view (requires WebGL).

§ Visibility from observer

Set your observer location to see the next 7 days of passes ≥ 10°. The values pass through the URL so the page stays shareable.

No JS? Fill the form by hand. The geolocation button needs JavaScript.